Location: Lanoux
(43.1180°N, 1.4255°E)
Time: 15:36:55
(UTC+00:00)

SL-16 R/B - Pass Details

Date: 15 March 2026
Orbit: 985 x 1006 km, 99.8° (Epoch: 15 April)

Event Time Altitude Azimuth Distance (km) Brightness Sun altitude
Rises 03:28:11 0° 158° (SSE) 3,684 5.5 -28.9°
Reaches altitude 10° 03:30:37 10° 156° (SSE) 2,742 4.8 -28.5°
Maximum altitude 03:36:46 77° 72° (ENE) 1,021 2.6 -27.5°
Drops below altitude 10° 03:42:59 10° 348° (NNW) 2,772 5.0 -26.4°
Sets 03:45:29 0° 347° (NNW) 3,729 5.7 -26.0°
